Flag for U.S.A. Weather past 2 weeks in Atlantic City, New Jersey, U.S.A.

Now
71 °F

Sunny.


Feels Like: 72 °F
Forecast: 68 / 80 °F
Wind: 6 mph from South

Location: Atlantic City International Airport

Current Time: Jul 25, 2014 at 9:34:17 PM

Latest Report: Jul 25, 2014 at 8:54 PM


Visibility: 10 mi

Pressure: 30.03 "Hg

Humidity: 78%

Dew point: 64 °F

Location of Atlantic CityLocation

Historic Weather in Atlantic City — Graph

°F

Atlantic City temperature yesterday

Maximum temperature yesterday: 81 °F (at 5:54 PM)
Minimum temperature yesterday: 68 °F (at 11:54 PM)
Average temperature yesterday: 74 °F

Past Weeks' High & Low Weather Summary

 TemperatureHumidityPressure
High88 °F (Jul 15, 12:54 PM)100% (Jul 10, 8:54 PM)30.23 "Hg (Jul 10, 8:54 PM)
Low58 °F (Jul 18, 5:54 AM)37% (Jul 17, 4:54 PM)29.72 "Hg (Jul 15, 4:54 PM)
Average73 °F78%30.03 "Hg
* Reported Jul 10 7:54 PM — Jul 25 7:54 PM, Atlantic City, Weather by CustomWeather, © 2014

Note: Actual official high and low records may vary slightly from our data, if they occured in-between our weather recording intervals... More about our weather records

Advertising

Atlantic City weather history for previous 24 hours

 ConditionsComfort  
Time TempWeatherWind HumidityBarometerVisibility
7:54 PM
Jul 25
73 °FSunny.8 mph74%30.01 "Hg10 mi
6:54 PM75 °FSunny.9 mph69%30.01 "Hg10 mi
5:54 PM76 °FSunny.9 mph67%30.00 "Hg10 mi
4:54 PM77 °FSunny.12 mph62%29.99 "Hg10 mi
3:54 PM78 °FPassing clouds.10 mph62%30.00 "Hg10 mi
2:54 PM78 °FSunny.9 mph60%30.00 "Hg10 mi
1:54 PM76 °FBroken clouds.10 mph64%30.01 "Hg10 mi
12:54 PM78 °FScattered clouds.6 mph50%30.00 "Hg10 mi
11:54 AM79 °FScattered clouds.6 mph50%30.02 "Hg10 mi
10:54 AM77 °FSunny.3 mph58%30.01 "Hg10 mi
9:54 AM74 °FSunny.5 mph62%30.02 "Hg10 mi
8:54 AM71 °FSunny.7 mph63%30.02 "Hg10 mi
7:54 AM66 °FSunny.8 mph70%30.01 "Hg10 mi
6:54 AM62 °FSunny.6 mph80%29.98 "Hg10 mi
5:54 AM60 °FClear.5 mph80%29.96 "Hg10 mi
4:54 AM61 °FClear.5 mph81%29.95 "Hg10 mi
3:54 AM62 °FClear.5 mph78%29.94 "Hg10 mi
2:54 AM63 °FPassing clouds.N/A78%29.93 "Hg10 mi
1:54 AM64 °FClear.N/A81%29.92 "Hg10 mi
12:54 AM65 °FClear.6 mph91%29.91 "Hg10 mi
11:54 PM
Jul 24
68 °FClear.7 mph93%29.90 "Hg10 mi
10:54 PM69 °FClear.3 mph90%29.90 "Hg10 mi
9:54 PM72 °FClear.5 mph87%29.90 "Hg10 mi
Weather by CustomWeather, © 2014

See weather overviewHow to use our weather pages